Flag for U.S.A. Weather past 2 weeks in Thousand Oaks, California, U.S.A.

Now
58 °F

Low clouds.


Feels Like: 58 °F
Forecast: 54 / 79 °F
Wind: No wind

Location: Camarillo Airport

Current Time: May 29, 2015 at 3:29:10 AM

Latest Report: May 29, 2015 at 2:55 AM


Visibility: 9 mi

Pressure: 29.96 "Hg

Humidity: 87%

Dew point: 54 °F

Location of Thousand OaksLocation

Historic Weather in Thousand Oaks — Graph

°F

Thousand Oaks temperature yesterday

Maximum temperature yesterday: 70 °F (at 3:55 PM)
Minimum temperature yesterday: 52 °F (at 3:55 AM)
Average temperature yesterday: 61 °F

Past Weeks' High & Low Weather Summary

 TemperatureHumidityPressure
High70 °F (May 16, 11:55 AM)87% (May 25, 5:55 AM)30.11 "Hg (May 25, 5:55 AM)
Low52 °F (May 15, 12:55 AM)42% (May 21, 3:55 PM)29.86 "Hg (May 14, 4:55 PM)
Average61 °F69%30.00 "Hg
* Reported May 14 1:55 AM — May 29 1:55 AM, Thousand Oaks, Weather by CustomWeather, © 2015

Note: Actual official high and low records may vary slightly from our data, if they occured in-between our weather recording intervals... More about our weather records

Advertising

Thousand Oaks weather history for previous 24 hours

 ConditionsComfort  
Time TempWeatherWind HumidityBarometerVisibility
1:55 AM
Fri, May 29
58 °FLow clouds.No wind87%29.96 "Hg7 mi
12:55 AM58 °FLow clouds.3 mph81%29.96 "Hg9 mi
11:55 PM
Thu, May 28
58 °FClear.No wind84%29.97 "Hg10 mi
10:55 PM59 °FClear.3 mph81%29.97 "Hg10 mi
9:55 PM60 °FClear.5 mph78%29.96 "Hg10 mi
8:55 PM61 °FSunny.No wind72%29.96 "Hg10 mi
7:55 PM62 °FSunny.3 mph70%29.95 "Hg10 mi
6:55 PM64 °FSunny.6 mph68%29.95 "Hg10 mi
5:55 PM65 °FSunny.9 mph66%29.95 "Hg10 mi
4:55 PM67 °FSunny.10 mph63%29.96 "Hg10 mi
3:55 PM70 °FSunny.9 mph57%29.96 "Hg10 mi
2:55 PM69 °FSunny.10 mph61%29.97 "Hg10 mi
1:55 PM67 °FSunny.10 mph63%30.00 "Hg10 mi
12:55 PM67 °FSunny.10 mph66%30.01 "Hg10 mi
11:55 AM67 °FPassing clouds.8 mph66%30.02 "Hg10 mi
10:55 AM65 °FPartly sunny.7 mph68%30.03 "Hg10 mi
9:55 AM63 °FOvercast.5 mph73%30.03 "Hg9 mi
8:55 AM59 °FLow clouds.No wind81%30.03 "Hg8 mi
7:55 AM58 °FLow clouds.No wind84%30.02 "Hg8 mi
6:55 AM56 °FFog.3 mph87%30.01 "Hg6 mi
6:04 AM54 °FPassing clouds.No wind86%29.98 "Hg8 mi
5:55 AM55 °FPartly cloudy.No wind83%30.00 "Hg8 mi
4:55 AM53 °FClear.3 mph86%29.98 "Hg10 mi
3:55 AM52 °FClear.5 mph83%29.98 "Hg10 mi
Weather by CustomWeather, © 2015

See weather overviewHow to use our weather pages